Regional Weather Roundup
Issued by NWS

Home | Current Version | Previous Version | Graphics & Text | Print | Product List | Glossary On
Versions: 1 2 3 4 5 6 7 8 9 10 11 12 13 14 15 16 17 18 19 20 21 22 23 24 25 26 27 28 29 30 31 32 33 34 35 36 37 38 39 40 41 42 43 44 45 46 47 48 49 50
000
ASUS45 KSLC 020410
RWRUT

UTAH REGIONAL WEATHER ROUNDUP
NATIONAL WEATHER SERVICE SALT LAKE CITY UT
1000 PM MDT TUE SEP 01 2015

UTZ001>011-023>025-020500-

NORTHERN UTAH

CITY           SKY/WX    TMP DP  RH WIND       PRES   REMARKS
BRIGHAM CITY   CLEAR     76  35  21 SE6       29.90S
HILL AFB       CLEAR     77  40  26 SE8       29.95R
LOGAN          CLEAR     66  47  50 CALM      29.92R
OGDEN          CLEAR     74  47  38 S9        29.92R
PROVO AIRPORT  PTCLDY    75  45  33 SE16      29.98R
SALT LAKE CITY PTCLDY    81  36  19 S10       29.91R
VERNAL         MOCLDY    67  45  45 SW5       30.14R
WENDOVER       CLEAR     79  27  14 W8        29.87R
HEBER CITY     PTCLDY    68  41  37 CALM      30.07R
WEST JORDAN    CLEAR     75  36  23 S9        29.96R

$$

UTZ012>022-026-027-020500-

SOUTHERN/CENTRAL UTAH

CITY           SKY/WX    TMP DP  RH WIND       PRES   REMARKS
BLANDING       PTCLDY    67  44  43 CALM      30.25R
BRYCE CANYON   CLEAR     56  44  64 SW6       30.31R
CEDAR CITY     PTCLDY    72  40  31 S8        30.13R
DELTA          CLEAR     78  28  15 S15       30.01R
HANKSVILLE     PTCLDY    72  50  46 CALM      30.08R
MILFORD        CLEAR     71  36  27 S6        30.06R
MOAB/CYNLANDS  CLOUDY    67  58  72 SE10      30.08F THUNDER
PRICE          PTCLDY    62  46  55 NE8       30.16R
ST GEORGE      PTCLDY    86  43  22 S5        29.94R
KANAB          PTCLDY    66  55  68 CALM      30.16R

$$

REGIONAL REPORTS     COLORADO/ARIZONA

CITY           SKY/WX    TMP DP  RH WIND       PRES   REMARKS
CRAIG, CO      CLOUDY    61  45  55 SE5       30.22R
GRAND JUNCTION MOCLDY    67  49  52 N9        30.12R
RIFLE          CLOUDY    61  52  72 S9        30.23F
MONTROSE       MOCLDY    69  48  47 SE9       30.24R
CORTEZ         MOCLDY    65  47  52 S6        30.19R
PAGE, AZ       PTCLDY    79  50  36 SW12      30.05R
GRAND CANYON   MOCLDY    60  53  77 CALM      30.27R
KINGMAN        CLEAR     79  46  31 S9        30.01R
FLAGSTAFF      MOCLDY    60  52  74 SW6       30.32R

$$

REGIONAL REPORTS    NEVADA/IDAHO/WYOMING

CITY           SKY/WX    TMP DP  RH WIND       PRES   REMARKS
LAS VEGAS, NV  PTCLDY    93  49  22 S10       29.83R HX  90
ELY            CLEAR     67  27  22 SE12      30.10R
ELKO           CLEAR     68  29  23 SW5       29.93R
POCATELLO, ID  CLEAR     76  35  22 SW3       29.88S
BURLEY         CLEAR     65  47  52 S5        29.83S
EVANSTON, WY   MOCLDY    66  36  32 S8        30.18R
ROCK SPRINGS   MOCLDY    63  44  50 S7        30.17R
KEMMERER       PTCLDY    63  32  31 SE5       30.18S

$$



USA.gov is the U.S. government's official web portal to all federal, state and local government web resources and services.